Location: Aboncourt
(47.7710°N, 5.9826°E)
Time: 03:24:14
(UTC+00:00)

Cosmos 1680 Rocket - Pass Details

Date: 05 July 2020
Orbit: 760 x 781 km, 74.1° (Epoch: 03 August)

Event Time Altitude Azimuth Distance (km) Brightness Sun altitude
Exits shadow 21:35:41 21° 147° (SSE) 1,684 4.6 -14.2°
Maximum altitude 21:38:16 33° 101° (ESE) 1,302 4.4 -14.4°
Drops below altitude 10° 21:42:58 10° 39° (NE) 2,345 6.3 -14.7°
Sets 21:45:34 0° 30° (NNE) 3,278 7.2 -14.9°
